| time (UTC) | temp F | wind direction | speed knots | gust knots | rain 1hr in | rain 24hr in | rain mn in | humidity % | barometer mb |
| 20260505212703 | 51 | 0 | 0.0 | 0.0 | 0.00 | 0.51 | 0.51 | 93 | 1004.8 |
| 20260505212019 | 52 | 0 | 0.0 | 0.0 | 0.00 | 0.51 | 0.51 | 93 | 1004.7 |
| 20260505210903 | 52 | 0 | 0.0 | 0.0 | 0.00 | 0.52 | 0.51 | 92 | 1005.2 |
| 20260505210005 | 52 | 0 | 0.0 | 0.0 | 0.00 | 0.52 | 0.51 | 92 | 1005.0 |
| 20260505205405 | 52 | 0 | 0.0 | 0.0 | 0.00 | 0.52 | 0.51 | 92 | 1005.4 |
| 20260505204503 | 52 | 0 | 0.0 | 0.0 | 0.00 | 0.52 | 0.51 | 92 | 1005.2 |
| 20260505203603 | 52 | 0 | 0.0 | 0.0 | 0.00 | 0.52 | 0.51 | 92 | 1005.3 |
| 20260505202703 | 52 | 0 | 0.0 | 0.0 | 0.00 | 0.52 | 0.51 | 92 | 1005.2 |
| 20260505201803 | 52 | 0 | 0.0 | 0.0 | 0.00 | 0.53 | 0.51 | 92 | 1005.3 |
| 20260505200903 | 52 | 0 | 0.0 | 0.0 | 0.00 | 0.55 | 0.51 | 92 | 1005.0 |
| 20260505200005 | 53 | 0 | 0.0 | 0.0 | 0.00 | 0.55 | 0.51 | 92 | 1005.2 |
| 20260505195403 | 53 | 0 | 0.0 | 0.0 | 0.00 | 0.55 | 0.51 | 92 | 1005.2 |
| 20260505194503 | 52 | 0 | 0.0 | 0.0 | 0.00 | 0.55 | 0.51 | 92 | 1005.0 |
| 20260505193603 | 52 | 0 | 0.0 | 0.0 | 0.00 | 0.56 | 0.51 | 92 | 1004.9 |
| 20260505192705 | 52 | 0 | 0.0 | 0.0 | 0.00 | 0.56 | 0.51 | 92 | 1005.0 |
| 20260505191805 | 52 | 0 | 0.0 | 0.0 | 0.00 | 0.57 | 0.51 | 91 | 1005.0 |
| 20260505190903 | 53 | 0 | 0.0 | 0.0 | 0.00 | 0.57 | 0.51 | 91 | 1004.8 |
| 20260505185403 | 53 | 0 | 0.0 | 0.0 | 0.00 | 0.57 | 0.51 | 91 | 1004.8 |
| 20260505184503 | 53 | 0 | 0.0 | 0.0 | 0.00 | 0.57 | 0.51 | 91 | 1004.8 |
| 20260505183603 | 53 | 0 | 0.0 | 0.0 | 0.00 | 0.57 | 0.51 | 90 | 1004.8 |
| 20260505182703 | 53 | 0 | 0.0 | 0.0 | 0.00 | 0.57 | 0.51 | 90 | 1004.8 |
| 20260505181805 | 53 | 0 | 0.0 | 0.0 | 0.00 | 0.57 | 0.51 | 90 | 1004.6 |
| 20260505181116 | 54 | 0 | 0.0 | 0.0 | 0.00 | 0.57 | 0.51 | 90 | 1004.8 |
| 20260505180003 | 54 | 0 | 0.0 | 0.0 | 0.00 | 0.58 | 0.51 | 89 | 1004.8 |
| 20260505175405 | 54 | 0 | 0.0 | 0.0 | 0.00 | 0.58 | 0.51 | 89 | 1004.8 |
| 20260505174503 | 54 | 0 | 0.0 | 0.0 | 0.00 | 0.58 | 0.51 | 89 | 1004.9 |
| 20260505173603 | 54 | 0 | 0.0 | 0.0 | 0.00 | 0.58 | 0.51 | 88 | 1004.8 |
| 20260505172703 | 55 | 0 | 0.0 | 0.0 | 0.00 | 0.58 | 0.51 | 86 | 1004.9 |
| 20260505171805 | 55 | 0 | 0.0 | 0.0 | 0.00 | 0.59 | 0.51 | 84 | 1004.8 |
| 20260505171119 | 55 | 0 | 0.0 | 0.0 | 0.00 | 0.59 | 0.51 | 84 | 1004.8 |
| 20260505170003 | 55 | 0 | 0.0 | 0.0 | 0.00 | 0.59 | 0.51 | 83 | 1004.8 |
| 20260505165403 | 56 | 0 | 0.0 | 0.0 | 0.00 | 0.59 | 0.51 | 84 | 1004.8 |
| 20260505164503 | 55 | 0 | 0.0 | 0.0 | 0.00 | 0.59 | 0.51 | 82 | 1005.2 |
| 20260505163603 | 55 | 0 | 0.0 | 0.0 | 0.00 | 0.59 | 0.51 | 83 | 1004.7 |
| 20260505162703 | 55 | 0 | 0.0 | 0.0 | 0.00 | 0.59 | 0.51 | 83 | 1004.9 |
| 20260505161805 | 55 | 0 | 0.0 | 0.0 | 0.00 | 0.59 | 0.51 | 83 | 1005.0 |
| 20260505160903 | 55 | 0 | 0.0 | 0.0 | 0.00 | 0.59 | 0.51 | 83 | 1004.9 |
| 20260505152703 | 55 | 0 | 0.0 | 0.0 | 0.00 | 0.59 | 0.51 | 83 | 1005.2 |
| 20260505152019 | 55 | 0 | 0.0 | 0.0 | 0.00 | 0.59 | 0.51 | 83 | 1005.0 |
| 20260505150903 | 55 | 0 | 0.0 | 0.0 | 0.00 | 0.59 | 0.51 | 83 | 1005.2 |
| 20260505140218 | 55 | 207 | 0.0 | 0.9 | 0.00 | 0.59 | 0.51 | 83 | 1005.4 |
| 20260505124720 | 55 | 0 | 0.0 | 0.0 | 0.00 | 0.59 | 0.51 | 82 | 1005.7 |
| 20260505123604 | 55 | 70 | 0.0 | 0.9 | 0.00 | 0.59 | 0.51 | 83 | 1005.8 |
| 20260505122703 | 55 | 164 | 0.0 | 0.9 | 0.00 | 0.59 | 0.51 | 84 | 1005.9 |
| 20260505121805 | 54 | 218 | 0.0 | 0.9 | 0.00 | 0.59 | 0.51 | 86 | 1006.0 |
| 20260505120903 | 53 | 0 | 0.0 | 0.0 | 0.00 | 0.59 | 0.51 | 86 | 1006.0 |
| 20260505120004 | 53 | 0 | 0.0 | 0.0 | 0.00 | 0.59 | 0.51 | 86 | 1006.1 |
| 20260505115403 | 53 | 147 | 0.0 | 0.9 | 0.00 | 0.59 | 0.51 | 86 | 1006.0 |
| 20260505114503 | 54 | 0 | 0.0 | 0.0 | 0.00 | 0.59 | 0.51 | 86 | 1005.9 |
| 20260505113603 | 54 | 203 | 0.0 | 3.5 | 0.00 | 0.59 | 0.51 | 87 | 1006.0 |
| 20260505112703 | 54 | 217 | 0.0 | 3.5 | 0.00 | 0.59 | 0.51 | 86 | 1006.0 |
| 20260505111805 | 54 | 146 | 0.0 | 0.9 | 0.00 | 0.59 | 0.51 | 87 | 1006.0 |
| 20260505110903 | 54 | 221 | 0.0 | 0.9 | 0.00 | 0.59 | 0.51 | 85 | 1006.0 |
| 20260505110221 | 54 | 127 | 0.0 | 2.6 | 0.00 | 0.59 | 0.51 | 85 | 1006.2 |
| 20260505101805 | 54 | 140 | 0.0 | 0.9 | 0.00 | 0.59 | 0.51 | 85 | 1006.0 |
| 20260505100903 | 54 | 0 | 0.0 | 0.0 | 0.00 | 0.59 | 0.51 | 84 | 1006.3 |
| 20260505100005 | 54 | 252 | 0.0 | 0.9 | 0.00 | 0.59 | 0.51 | 82 | 1006.3 |
| 20260505095405 | 54 | 1 | 0.0 | 1.7 | 0.00 | 0.59 | 0.51 | 81 | 1006.5 |
| 20260505094719 | 54 | 0 | 0.0 | 0.0 | 0.00 | 0.59 | 0.51 | 80 | 1006.4 |
| 20260505093603 | 54 | 333 | 0.0 | 1.7 | 0.00 | 0.59 | 0.51 | 79 | 1006.4 |
| 20260505092703 | 54 | 134 | 0.0 | 0.9 | 0.00 | 0.59 | 0.51 | 80 | 1006.2 |
| 20260505091803 | 55 | 139 | 0.0 | 0.9 | 0.00 | 0.59 | 0.51 | 80 | 1006.1 |
| 20260505091121 | 55 | 155 | 0.0 | 2.6 | 0.00 | 0.59 | 0.51 | 80 | 1006.2 |
| 20260505090003 | 54 | 113 | 0.0 | 0.9 | 0.00 | 0.59 | 0.51 | 80 | 1006.0 |
| 20260505085405 | 54 | 0 | 0.0 | 0.0 | 0.00 | 0.59 | 0.51 | 80 | 1006.0 |
| 20260505084503 | 54 | 175 | 0.0 | 1.7 | 0.00 | 0.59 | 0.51 | 79 | 1006.0 |
| 20260505083605 | 54 | 140 | 0.0 | 0.9 | 0.00 | 0.59 | 0.51 | 79 | 1005.9 |
| 20260505082703 | 55 | 140 | 0.0 | 0.9 | 0.00 | 0.59 | 0.51 | 80 | 1005.9 |
| 20260505081803 | 55 | 0 | 0.0 | 0.0 | 0.00 | 0.59 | 0.51 | 78 | 1005.9 |
| 20260505080905 | 53 | 0 | 0.0 | 0.0 | 0.00 | 0.59 | 0.51 | 81 | 1005.8 |
| 20260505080219 | 52 | 0 | 0.0 | 0.0 | 0.00 | 0.59 | 0.51 | 84 | 1006.0 |
| 20260505075403 | 53 | 0 | 0.0 | 0.0 | 0.00 | 0.59 | 0.51 | 85 | 1006.0 |
| 20260505074503 | 52 | 0 | 0.0 | 0.0 | 0.00 | 0.59 | 0.51 | 86 | 1005.9 |
| 20260505073818 | 52 | 0 | 0.0 | 0.0 | 0.00 | 0.59 | 0.51 | 88 | 1006.0 |
| 20260505072917 | 51 | 315 | 0.0 | 0.9 | 0.00 | 0.59 | 0.51 | 91 | 1006.0 |
| 20260505071803 | 51 | 348 | 0.0 | 1.7 | 0.00 | 0.59 | 0.51 | 91 | 1006.0 |
| 20260505070905 | 51 | 11 | 0.0 | 0.9 | 0.00 | 0.59 | 0.51 | 91 | 1006.1 |
| 20260505070003 | 51 | 347 | 0.0 | 0.9 | 0.00 | 0.59 | 0.51 | 91 | 1006.0 |
| 20260505065619 | 51 | 352 | 0.0 | 0.9 | 0.00 | 0.59 | 0.51 | 90 | 1005.8 |
| 20260505064505 | 50 | 282 | 0.0 | 0.9 | 0.00 | 0.59 | 0.51 | 92 | 1006.0 |
| 20260505063603 | 50 | 0 | 0.0 | 0.0 | 0.00 | 0.59 | 0.51 | 93 | 1006.0 |
| 20260505062704 | 50 | 324 | 0.0 | 0.9 | 0.00 | 0.59 | 0.51 | 93 | 1005.9 |
| 20260505061803 | 49 | 0 | 0.0 | 0.0 | 0.00 | 0.59 | 0.51 | 94 | 1006.1 |
| 20260505060905 | 49 | 353 | 0.0 | 0.9 | 0.00 | 0.59 | 0.51 | 94 | 1006.1 |
| 20260505060005 | 49 | 0 | 0.0 | 0.0 | 0.00 | 0.59 | 0.51 | 94 | 1006.1 |
| 20260505055618 | 49 | 0 | 0.0 | 0.0 | 0.00 | 0.59 | 0.51 | 94 | 1006.0 |
| 20260505054503 | 49 | 0 | 0.0 | 0.0 | 0.00 | 0.59 | 0.51 | 95 | 1006.0 |
| 20260505053605 | 49 | 0 | 0.0 | 0.0 | 0.00 | 0.59 | 0.51 | 95 | 1006.0 |
| 20260505052703 | 48 | 0 | 0.0 | 0.0 | 0.00 | 0.59 | 0.51 | 95 | 1005.7 |
| 20260505051805 | 48 | 0 | 0.0 | 0.0 | 0.00 | 0.59 | 0.51 | 95 | 1005.8 |
| 20260505050904 | 48 | 0 | 0.0 | 0.0 | 0.00 | 0.59 | 0.51 | 95 | 1005.8 |
| 20260505040905 | 49 | 0 | 0.0 | 0.0 | 0.22 | 0.59 | 0.51 | 95 | 1006.0 |
| 20260505040218 | 49 | 0 | 0.0 | 0.0 | 0.25 | 0.59 | 0.51 | 95 | 1006.0 |
| 20260505035405 | 49 | 0 | 0.0 | 0.0 | 0.27 | 0.58 | 0.50 | 95 | 1006.2 |
| 20260505034505 | 50 | 345 | 0.0 | 0.9 | 0.29 | 0.57 | 0.49 | 95 | 1006.4 |
| 20260505033603 | 49 | 10 | 0.0 | 1.7 | 0.28 | 0.53 | 0.45 | 95 | 1006.6 |
| 20260505032704 | 50 | 0 | 0.0 | 0.0 | 0.26 | 0.49 | 0.41 | 95 | 1006.1 |
| 20260505032019 | 50 | 341 | 0.0 | 0.9 | 0.24 | 0.45 | 0.37 | 95 | 1006.0 |
| 20260505030903 | 50 | 14 | 0.0 | 0.9 | 0.17 | 0.37 | 0.29 | 95 | 1006.9 |
| 20260505030004 | 51 | 315 | 0.0 | 0.9 | 0.15 | 0.33 | 0.25 | 95 | 1006.9 |
| 20260505025617 | 51 | 0 | 0.0 | 0.0 | 0.13 | 0.31 | 0.23 | 95 | 1007.1 |
| 20260505024503 | 51 | 0 | 0.0 | 0.0 | 0.12 | 0.28 | 0.20 | 95 | 1006.9 |
| 20260505023603 | 51 | 0 | 0.0 | 0.0 | 0.11 | 0.25 | 0.17 | 95 | 1007.0 |
| 20260505022919 | 51 | 4 | 0.0 | 0.9 | 0.09 | 0.23 | 0.15 | 95 | 1007.1 |
| 20260505021803 | 51 | 0 | 0.0 | 0.0 | 0.08 | 0.21 | 0.13 | 95 | 1007.4 |
| 20260505020903 | 51 | 0 | 0.0 | 0.0 | 0.07 | 0.20 | 0.12 | 95 | 1007.1 |
| 20260505020005 | 51 | 0 | 0.0 | 0.0 | 0.05 | 0.18 | 0.10 | 95 | 1007.0 |
| 20260505015403 | 51 | 0 | 0.0 | 0.0 | 0.05 | 0.18 | 0.10 | 95 | 1007.0 |
| 20260505014503 | 51 | 335 | 0.0 | 0.9 | 0.03 | 0.16 | 0.08 | 95 | 1007.1 |
| 20260505013603 | 51 | 316 | 0.0 | 0.9 | 0.01 | 0.14 | 0.06 | 94 | 1007.0 |
| 20260505012703 | 51 | 0 | 0.0 | 0.0 | 0.00 | 0.13 | 0.05 | 94 | 1007.3 |
| 20260505011803 | 51 | 0 | 0.0 | 0.0 | 0.00 | 0.13 | 0.05 | 94 | 1007.3 |
| 20260505010903 | 51 | 325 | 0.0 | 0.9 | 0.00 | 0.13 | 0.05 | 94 | 1007.1 |
| 20260505010221 | 51 | 0 | 0.0 | 0.0 | 0.00 | 0.13 | 0.05 | 94 | 1007.1 |
| 20260505005403 | 51 | 0 | 0.0 | 0.0 | 0.00 | 0.13 | 0.05 | 94 | 1007.4 |
| 20260505004505 | 51 | 0 | 0.0 | 0.0 | 0.00 | 0.13 | 0.05 | 94 | 1007.4 |
| 20260505003819 | 51 | 360 | 0.0 | 0.9 | 0.00 | 0.13 | 0.05 | 94 | 1007.6 |
| 20260505002918 | 51 | 7 | 0.0 | 0.9 | 0.00 | 0.13 | 0.05 | 94 | 1007.9 |
| 20260505001805 | 51 | 0 | 0.0 | 0.0 | 0.01 | 0.13 | 0.05 | 94 | 1007.9 |
| 20260505000903 | 51 | 0 | 0.0 | 0.0 | 0.01 | 0.13 | 0.05 | 94 | 1008.2 |
| 20260505000218 | 51 | 0 | 0.0 | 0.0 | 0.01 | 0.13 | 0.05 | 94 | 1008.3 |
| 20260504235405 | 51 | 0 | 0.0 | 0.0 | 0.02 | 0.13 | 0.05 | 94 | 1008.4 |
| 20260504234505 | 51 | 0 | 0.0 | 0.0 | 0.04 | 0.13 | 0.05 | 94 | 1008.6 |
| 20260504233819 | 51 | 0 | 0.0 | 0.0 | 0.04 | 0.13 | 0.05 | 94 | 1008.7 |
| 20260504232703 | 51 | 0 | 0.0 | 0.0 | 0.05 | 0.13 | 0.05 | 94 | 1008.9 |
| 20260504231803 | 51 | 0 | 0.0 | 0.0 | 0.04 | 0.12 | 0.04 | 93 | 1009.0 |
| 20260504230905 | 51 | 0 | 0.0 | 0.0 | 0.04 | 0.12 | 0.04 | 93 | 1009.2 |
| 20260504230220 | 51 | 18 | 0.0 | 0.9 | 0.04 | 0.12 | 0.04 | 93 | 1009.4 |
| 20260504225615 | 51 | 9 | 0.0 | 1.7 | 0.03 | 0.11 | 0.03 | 93 | 1009.5 |
| 20260504224505 | 51 | 348 | 0.0 | 0.9 | 0.01 | 0.09 | 0.01 | 93 | 1009.6 |
| 20260504223605 | 51 | 5 | 0.0 | 0.9 | 0.01 | 0.09 | 0.01 | 93 | 1009.6 |
| 20260504222705 | 51 | 0 | 0.0 | 0.0 | 0.00 | 0.08 | 0.00 | 93 | 1009.8 |
| 20260504222021 | 51 | 0 | 0.0 | 0.0 | 0.00 | 0.08 | 0.00 | 93 | 1009.7 |
| 20260504221120 | 51 | 0 | 0.0 | 0.0 | 0.01 | 0.08 | 0.00 | 92 | 1009.7 |
| 20260504220220 | 51 | 0 | 0.0 | 0.0 | 0.01 | 0.08 | 0.00 | 92 | 1009.8 |
| 20260504215405 | 51 | 0 | 0.0 | 0.0 | 0.01 | 0.08 | 0.08 | 92 | 1009.9 |
| 20260504214719 | 51 | 0 | 0.0 | 0.0 | 0.01 | 0.08 | 0.08 | 92 | 1010.1 |
| 20260504213604 | 51 | 0 | 0.0 | 0.0 | 0.01 | 0.08 | 0.08 | 91 | 1010.1 |